• In Uzbekistan
  • List of Countries
  • For 7 days
  • Water Temperature
  • Satellite Maps
  • Weather Map
  • Weather Widgets
  • user-avatar
    Login

    Hourly Weather Vranjina

    Today, 17 December, Sunday

    Time Temperature Precipitation Wind Pressure Humidity
    00:00 +8°C° 0.3 mm 1 mps 729 mmHg 84%
    01:00 +8°C° 0 mm 1 mps 729 mmHg 86%
    02:00 +8°C° 0.4 mm 1 mps 729 mmHg 87%
    03:00 +7°C° 0.4 mm 1 mps 729 mmHg 87%
    04:00 +7°C° 0.4 mm 1 mps 729 mmHg 87%
    05:00 +7°C° 0.2 mm 1 mps 730 mmHg 87%
    06:00 +7°C° 0.2 mm 1 mps 730 mmHg 87%
    07:00 +5°C° 0 mm 2 mps 730 mmHg 88%
    08:00 +6°C° 0.3 mm 2 mps 730 mmHg 85%
    09:00 +7°C° 0.3 mm 2 mps 731 mmHg 83%
    10:00 +7°C° 0.3 mm 2 mps 731 mmHg 81%
    11:00 +7°C° 0.4 mm 2 mps 731 mmHg 80%
    12:00 +7°C° 0.4 mm 2 mps 731 mmHg 79%
    13:00 +7°C° 0 mm 3 mps 731 mmHg 77%
    14:00 +5°C° 0.3 mm 3 mps 731 mmHg 79%
    15:00 +5°C° 0.3 mm 3 mps 732 mmHg 80%
    16:00 +4°C° 0.3 mm 3 mps 732 mmHg 81%
    17:00 +4°C° 0.3 mm 3 mps 732 mmHg 81%
    18:00 +3°C° 0.3 mm 4 mps 733 mmHg 81%
    19:00 +3°C° 0.3 mm 4 mps 733 mmHg 81%
    20:00 +3°C° 0.2 mm 4 mps 734 mmHg 81%
    21:00 +1°C° 0.2 mm 4 mps 734 mmHg 81%
    22:00 +1°C° 0.2 mm 4 mps 735 mmHg 81%
    23:00 +1°C° 0.5 mm 4 mps 735 mmHg 80%

    Tomorrow, 18 December, Monday

    Time Temperature Precipitation Wind Pressure Humidity
    00:00 +1°C° 0.5 mm 5 mps 735 mmHg 80%
    01:00 0°C° 0.5 mm 5 mps 735 mmHg 80%
    02:00 0°C° 0.7 mm 5 mps 735 mmHg 81%
    03:00 0°C° 0.7 mm 5 mps 735 mmHg 82%
    04:00 -1°C° 0.7 mm 4 mps 735 mmHg 83%
    05:00 -1°C° 0.5 mm 4 mps 735 mmHg 83%
    06:00 -1°C° 0.5 mm 4 mps 735 mmHg 83%
    07:00 -1°C° 0.5 mm 4 mps 735 mmHg 84%
    08:00 0°C° 0.1 mm 4 mps 736 mmHg 82%
    09:00 +1°C° 0.1 mm 3 mps 736 mmHg 80%
    10:00 +2°C° 0.1 mm 3 mps 736 mmHg 78%
    11:00 +2°C° 0.1 mm 3 mps 736 mmHg 76%
    12:00 +2°C° 0.1 mm 3 mps 736 mmHg 73%
    13:00 +4°C° 0.1 mm 2 mps 736 mmHg 71%
    14:00 +3°C° 0.1 mm 2 mps 736 mmHg 73%
    15:00 +3°C° 0.1 mm 2 mps 736 mmHg 75%
    16:00 +2°C° 0.1 mm 2 mps 736 mmHg 77%
    17:00 +2°C° 0.1 mm 2 mps 736 mmHg 78%
    18:00 +1°C° 0.1 mm 3 mps 737 mmHg 79%
    19:00 0°C° 0.1 mm 3 mps 737 mmHg 80%
    20:00 0°C° 0 mm 3 mps 737 mmHg 80%
    21:00 0°C° 0 mm 3 mps 738 mmHg 80%
    22:00 -1°C° 0 mm 3 mps 738 mmHg 80%
    23:00 -1°C° 0 mm 3 mps 738 mmHg 80%

    Day after tomorrow, 19 December, Tuesday

    Time Temperature Precipitation Wind Pressure Humidity
    00:00 -1°C° 0 mm 3 mps 739 mmHg 80%
    01:00 -1°C° 0 mm 3 mps 739 mmHg 79%
    02:00 -1°C° 0 mm 3 mps 739 mmHg 79%
    03:00 -1°C° 0 mm 3 mps 740 mmHg 79%
    04:00 -2°C° 0 mm 3 mps 740 mmHg 79%
    05:00 -2°C° 0 mm 3 mps 740 mmHg 79%
    06:00 -2°C° 0 mm 3 mps 741 mmHg 79%
    07:00 -4°C° 0 mm 3 mps 741 mmHg 79%
    08:00 -2°C° 0 mm 3 mps 742 mmHg 75%
    09:00 0°C° 0 mm 3 mps 742 mmHg 71%
    10:00 +1°C° 0 mm 3 mps 742 mmHg 67%
    11:00 +1°C° 0 mm 3 mps 742 mmHg 64%
    12:00 +3°C° 0 mm 2 mps 742 mmHg 62%
    13:00 +3°C° 0 mm 2 mps 742 mmHg 60%
    14:00 +2°C° 0 mm 2 mps 742 mmHg 63%
    15:00 +2°C° 0 mm 2 mps 743 mmHg 66%
    16:00 +1°C° 0 mm 2 mps 743 mmHg 70%
    17:00 -1°C° 0 mm 2 mps 743 mmHg 72%
    18:00 -1°C° 0 mm 2 mps 743 mmHg 73%
    19:00 -2°C° 0 mm 3 mps 744 mmHg 75%
    20:00 -2°C° 0 mm 3 mps 744 mmHg 75%
    21:00 -4°C° 0 mm 3 mps 744 mmHg 75%
    22:00 -4°C° 0 mm 3 mps 744 mmHg 75%
    23:00 -4°C° 0 mm 3 mps 744 mmHg 75%

    20 December, Wednesday

    Time Temperature Precipitation Wind Pressure Humidity
    00:00 -4°C° 0 mm 3 mps 744 mmHg 75%
    01:00 -4°C° 0 mm 3 mps 744 mmHg 75%
    02:00 -4°C° 0 mm 3 mps 744 mmHg 75%
    03:00 -4°C° 0 mm 3 mps 744 mmHg 75%
    04:00 -5°C° 0 mm 3 mps 744 mmHg 75%
    05:00 -5°C° 0 mm 3 mps 744 mmHg 74%
    06:00 -5°C° 0 mm 3 mps 744 mmHg 74%
    07:00 -5°C° 0 mm 3 mps 744 mmHg 73%
    08:00 -2°C° 0 mm 3 mps 744 mmHg 69%
    09:00 -1°C° 0 mm 3 mps 744 mmHg 66%
    10:00 +1°C° 0 mm 2 mps 745 mmHg 62%
    11:00 +2°C° 0 mm 2 mps 744 mmHg 59%
    12:00 +3°C° 0 mm 2 mps 744 mmHg 57%
    13:00 +5°C° 0 mm 1 mps 744 mmHg 54%
    14:00 +3°C° 0 mm 1 mps 744 mmHg 58%
    15:00 +2°C° 0 mm 1 mps 744 mmHg 62%
    16:00 +1°C° 0 mm 1 mps 744 mmHg 66%
    17:00 +1°C° 0 mm 1 mps 744 mmHg 68%
    18:00 -2°C° 0 mm 2 mps 744 mmHg 70%
    19:00 -2°C° 0 mm 2 mps 745 mmHg 72%
    20:00 -3°C° 0 mm 2 mps 745 mmHg 72%
    21:00 -3°C° 0 mm 2 mps 745 mmHg 71%
    22:00 -3°C° 0 mm 2 mps 746 mmHg 71%
    23:00 -3°C° 0 mm 2 mps 746 mmHg 69%

    21 December, Thursday

    Time Temperature Precipitation Wind Pressure Humidity
    00:00 -3°C° 0 mm 2 mps 746 mmHg 68%
    01:00 -3°C° 0 mm 2 mps 746 mmHg 67%
    02:00 -3°C° 0 mm 2 mps 745 mmHg 65%
    03:00 -3°C° 0 mm 2 mps 745 mmHg 63%
    04:00 -3°C° 0 mm 2 mps 745 mmHg 61%
    05:00 -3°C° 0 mm 2 mps 745 mmHg 60%
    06:00 -3°C° 0 mm 2 mps 745 mmHg 58%
    07:00 -3°C° 0 mm 2 mps 746 mmHg 56%
    08:00 -2°C° 0 mm 2 mps 746 mmHg 53%
    09:00 +2°C° 0 mm 1 mps 746 mmHg 50%
    10:00 +3°C° 0 mm 1 mps 746 mmHg 47%
    11:00 +4°C° 0 mm 1 mps 745 mmHg 46%
    12:00 +5°C° 0 mm 1 mps 745 mmHg 46%
    13:00 +5°C° 0 mm 1 mps 744 mmHg 45%
    14:00 +4°C° 0 mm 1 mps 744 mmHg 50%
    15:00 +3°C° 0 mm 1 mps 744 mmHg 54%
    16:00 +2°C° 0 mm 1 mps 744 mmHg 59%
    17:00 +2°C° 0 mm 1 mps 744 mmHg 60%
    18:00 +1°C° 0 mm 1 mps 744 mmHg 60%
    19:00 +1°C° 0 mm 1 mps 744 mmHg 61%
    20:00 -1°C° 0 mm 2 mps 744 mmHg 61%
    21:00 -1°C° 0 mm 2 mps 744 mmHg 61%
    22:00 +1°C° 0 mm 2 mps 744 mmHg 61%
    23:00 +1°C° 0 mm 2 mps 744 mmHg 61%

    22 December, Friday

    Time Temperature Precipitation Wind Pressure Humidity
    00:00 +1°C° 0 mm 2 mps 743 mmHg 62%
    01:00 +1°C° 0 mm 2 mps 743 mmHg 62%
    02:00 +1°C° 0 mm 2 mps 743 mmHg 64%
    03:00 +2°C° 0 mm 2 mps 743 mmHg 66%
    04:00 +2°C° 0 mm 2 mps 743 mmHg 68%
    05:00 +2°C° 0 mm 2 mps 743 mmHg 70%
    06:00 +2°C° 0 mm 2 mps 743 mmHg 72%
    07:00 +2°C° 0 mm 2 mps 743 mmHg 74%
    08:00 +4°C° 0 mm 1 mps 743 mmHg 72%
    09:00 +6°C° 0 mm 1 mps 742 mmHg 70%
    10:00 +7°C° 0 mm 1 mps 742 mmHg 68%
    11:00 +8°C° 0 mm 1 mps 742 mmHg 67%
    12:00 +8°C° 0 mm 1 mps 741 mmHg 67%
    13:00 +9°C° 0 mm 1 mps 741 mmHg 66%
    14:00 +8°C° 0 mm 1 mps 740 mmHg 71%
    15:00 +6°C° 0 mm 1 mps 740 mmHg 76%
    16:00 +5°C° 0 mm 1 mps 740 mmHg 81%
    17:00 +4°C° 0 mm 2 mps 740 mmHg 80%
    18:00 +3°C° 0 mm 2 mps 740 mmHg 79%
    19:00 +3°C° 0 mm 2 mps 740 mmHg 78%
    20:00 +3°C° 0 mm 2 mps 740 mmHg 77%
    21:00 +3°C° 0 mm 2 mps 741 mmHg 75%
    22:00 +2°C° 0 mm 2 mps 741 mmHg 74%
    23:00 +2°C° 0 mm 2 mps 740 mmHg 73%
    Show more